When you browse on this site, cookies collect data to enhance your experience and personalize the content and advertising you see.
Visit our Privacy Policy to learn more. By continuing to use the site, you agree to this use of cookies and data.
EN

Hourly Weather Budapest

Today, 11 July, Saturday

Time Temperature Precipitation Wind Pressure Humidity
00:00 +23°C° 0 mm 2 mps 751 mmHg 69%
01:00 +23°C° 0 mm 2 mps 752 mmHg 71%
02:00 +21°C° 0 mm 2 mps 752 mmHg 73%
03:00 +22°C° 0 mm 1 mps 751 mmHg 75%
04:00 +22°C° 0 mm 1 mps 751 mmHg 76%
05:00 +23°C° 0 mm 2 mps 751 mmHg 73%
06:00 +24°C° 0 mm 2 mps 752 mmHg 69%
07:00 +26°C° 0 mm 3 mps 752 mmHg 66%
08:00 +27°C° 0 mm 3 mps 752 mmHg 61%
09:00 +28°C° 0 mm 4 mps 752 mmHg 57%
10:00 +30°C° 0 mm 4 mps 751 mmHg 52%
11:00 +32°C° 0 mm 4 mps 751 mmHg 50%
12:00 +32°C° 0 mm 4 mps 751 mmHg 49%
13:00 +33°C° 0 mm 4 mps 751 mmHg 47%
14:00 +30°C° 0.2 mm 5 mps 751 mmHg 55%
15:00 +28°C° 0.2 mm 7 mps 751 mmHg 63%
16:00 +26°C° 0.2 mm 8 mps 751 mmHg 70%
17:00 +23°C° 0.5 mm 8 mps 752 mmHg 71%
18:00 +21°C° 0.5 mm 9 mps 752 mmHg 72%
19:00 +18°C° 0.5 mm 9 mps 752 mmHg 72%
20:00 +18°C° 0.5 mm 8 mps 753 mmHg 72%
21:00 +17°C° 0.5 mm 7 mps 753 mmHg 72%
22:00 +17°C° 0.5 mm 7 mps 754 mmHg 72%
23:00 +16°C° 0.3 mm 6 mps 754 mmHg 75%

Tomorrow, 12 July, Sunday

Time Temperature Precipitation Wind Pressure Humidity
00:00 +16°C° 0.3 mm 6 mps 754 mmHg 79%
01:00 +15°C° 0.3 mm 5 mps 755 mmHg 82%
02:00 +15°C° 0.2 mm 5 mps 755 mmHg 82%
03:00 +14°C° 0.2 mm 4 mps 755 mmHg 81%
04:00 +14°C° 0.2 mm 4 mps 755 mmHg 81%
05:00 +14°C° 0 mm 4 mps 756 mmHg 79%
06:00 +15°C° 0 mm 4 mps 756 mmHg 77%
07:00 +15°C° 0 mm 4 mps 757 mmHg 75%
08:00 +17°C° 0 mm 3 mps 757 mmHg 72%
09:00 +18°C° 0 mm 2 mps 757 mmHg 69%
10:00 +18°C° 0 mm 2 mps 758 mmHg 67%
11:00 +18°C° 0 mm 2 mps 758 mmHg 65%
12:00 +19°C° 0 mm 2 mps 758 mmHg 64%
13:00 +19°C° 0 mm 2 mps 758 mmHg 63%
14:00 +20°C° 0 mm 2 mps 758 mmHg 61%
15:00 +20°C° 0 mm 2 mps 758 mmHg 59%
16:00 +22°C° 0 mm 1 mps 758 mmHg 57%
17:00 +21°C° 0 mm 1 mps 758 mmHg 60%
18:00 +20°C° 0 mm 1 mps 758 mmHg 64%
19:00 +20°C° 0 mm 1 mps 758 mmHg 67%
20:00 +18°C° 0 mm 2 mps 758 mmHg 70%
21:00 +17°C° 0 mm 2 mps 758 mmHg 74%
22:00 +16°C° 0 mm 2 mps 759 mmHg 77%
23:00 +15°C° 0 mm 2 mps 759 mmHg 79%

Day after tomorrow, 13 July, Monday

Time Temperature Precipitation Wind Pressure Humidity
00:00 +15°C° 0 mm 1 mps 759 mmHg 82%
01:00 +14°C° 0 mm 1 mps 758 mmHg 84%
02:00 +14°C° 0 mm 1 mps 758 mmHg 84%
03:00 +14°C° 0 mm 1 mps 758 mmHg 85%
04:00 +14°C° 0 mm 1 mps 758 mmHg 85%
05:00 +16°C° 0 mm 1 mps 758 mmHg 78%
06:00 +17°C° 0 mm 2 mps 758 mmHg 71%
07:00 +19°C° 0 mm 2 mps 758 mmHg 63%
08:00 +20°C° 0 mm 2 mps 758 mmHg 59%
09:00 +21°C° 0 mm 2 mps 758 mmHg 54%
10:00 +23°C° 0 mm 2 mps 758 mmHg 50%
11:00 +24°C° 0 mm 2 mps 758 mmHg 48%
12:00 +24°C° 0 mm 1 mps 757 mmHg 46%
13:00 +25°C° 0 mm 1 mps 757 mmHg 44%
14:00 +25°C° 0 mm 1 mps 757 mmHg 44%
15:00 +25°C° 0 mm 1 mps 756 mmHg 44%
16:00 +25°C° 0 mm 1 mps 756 mmHg 43%
17:00 +24°C° 0 mm 1 mps 756 mmHg 48%
18:00 +23°C° 0 mm 1 mps 756 mmHg 53%
19:00 +21°C° 0 mm 2 mps 755 mmHg 58%
20:00 +19°C° 0 mm 2 mps 755 mmHg 62%
21:00 +19°C° 0 mm 1 mps 755 mmHg 66%
22:00 +18°C° 0 mm 1 mps 755 mmHg 70%
23:00 +16°C° 0 mm 1 mps 755 mmHg 72%

14 July, Tuesday

Time Temperature Precipitation Wind Pressure Humidity
00:00 +16°C° 0 mm 1 mps 755 mmHg 74%
01:00 +15°C° 0 mm 1 mps 755 mmHg 76%
02:00 +15°C° 0 mm 1 mps 755 mmHg 77%
03:00 +14°C° 0 mm 0 mps 755 mmHg 79%
04:00 +13°C° 0 mm 0 mps 755 mmHg 80%
05:00 +16°C° 0 mm 1 mps 755 mmHg 75%
06:00 +19°C° 0 mm 1 mps 755 mmHg 70%
07:00 +20°C° 0 mm 1 mps 755 mmHg 65%
08:00 +22°C° 0 mm 1 mps 755 mmHg 60%
09:00 +23°C° 0 mm 1 mps 755 mmHg 55%
10:00 +24°C° 0 mm 1 mps 755 mmHg 51%
11:00 +25°C° 0 mm 1 mps 755 mmHg 48%
12:00 +26°C° 0 mm 2 mps 754 mmHg 46%
13:00 +26°C° 0 mm 2 mps 754 mmHg 44%
14:00 +26°C° 0 mm 2 mps 753 mmHg 44%
15:00 +26°C° 0 mm 2 mps 753 mmHg 45%
16:00 +26°C° 0 mm 2 mps 753 mmHg 46%
17:00 +25°C° 0 mm 1 mps 753 mmHg 50%
18:00 +24°C° 0 mm 1 mps 753 mmHg 54%
19:00 +23°C° 0 mm 1 mps 753 mmHg 58%
20:00 +22°C° 0 mm 1 mps 753 mmHg 60%
21:00 +21°C° 0 mm 1 mps 753 mmHg 63%
22:00 +19°C° 0 mm 1 mps 753 mmHg 65%
23:00 +19°C° 0 mm 1 mps 753 mmHg 67%

15 July, Wednesday

Time Temperature Precipitation Wind Pressure Humidity
00:00 +19°C° 0 mm 1 mps 753 mmHg 69%
01:00 +18°C° 0 mm 1 mps 753 mmHg 72%
02:00 +18°C° 0 mm 1 mps 753 mmHg 73%
03:00 +15°C° 0 mm 0 mps 752 mmHg 75%
04:00 +15°C° 0 mm 0 mps 752 mmHg 77%
05:00 +18°C° 0 mm 1 mps 752 mmHg 72%
06:00 +20°C° 0 mm 1 mps 753 mmHg 67%
07:00 +22°C° 0 mm 1 mps 753 mmHg 63%
08:00 +23°C° 0 mm 1 mps 753 mmHg 58%
09:00 +24°C° 0 mm 1 mps 753 mmHg 53%
10:00 +26°C° 0 mm 2 mps 753 mmHg 49%
11:00 +26°C° 0 mm 2 mps 752 mmHg 46%
12:00 +27°C° 0 mm 2 mps 752 mmHg 43%
13:00 +28°C° 0 mm 2 mps 752 mmHg 40%
14:00 +28°C° 0 mm 2 mps 751 mmHg 40%
15:00 +28°C° 0 mm 2 mps 751 mmHg 39%
16:00 +28°C° 0 mm 2 mps 751 mmHg 39%
17:00 +27°C° 0 mm 2 mps 751 mmHg 43%
18:00 +26°C° 0 mm 1 mps 751 mmHg 48%
19:00 +24°C° 0 mm 1 mps 751 mmHg 53%
20:00 +23°C° 0 mm 1 mps 751 mmHg 54%
21:00 +22°C° 0 mm 1 mps 751 mmHg 55%
22:00 +22°C° 0 mm 1 mps 751 mmHg 56%
23:00 +21°C° 0 mm 1 mps 751 mmHg 57%

16 July, Thursday

Time Temperature Precipitation Wind Pressure Humidity
00:00 +21°C° 0 mm 1 mps 751 mmHg 58%
01:00 +20°C° 0 mm 1 mps 751 mmHg 59%
02:00 +20°C° 0 mm 1 mps 751 mmHg 59%
03:00 +20°C° 0 mm 2 mps 751 mmHg 59%
04:00 +20°C° 0 mm 2 mps 751 mmHg 60%
05:00 +20°C° 0 mm 3 mps 751 mmHg 62%
06:00 +21°C° 0 mm 3 mps 752 mmHg 64%
07:00 +22°C° 0 mm 4 mps 752 mmHg 66%
08:00 +22°C° 0 mm 5 mps 752 mmHg 65%
09:00 +23°C° 0 mm 5 mps 753 mmHg 63%
10:00 +23°C° 0 mm 6 mps 753 mmHg 61%
11:00 +23°C° 0 mm 6 mps 753 mmHg 60%
12:00 +22°C° 0 mm 6 mps 752 mmHg 60%
13:00 +22°C° 0 mm 5 mps 752 mmHg 60%
14:00 +23°C° 0 mm 5 mps 752 mmHg 57%
15:00 +23°C° 0 mm 5 mps 752 mmHg 54%
16:00 +25°C° 0 mm 5 mps 752 mmHg 52%
17:00 +23°C° 0 mm 4 mps 752 mmHg 55%
18:00 +22°C° 0 mm 3 mps 752 mmHg 59%
19:00 +21°C° 0 mm 2 mps 752 mmHg 62%
20:00 +21°C° 0 mm 2 mps 752 mmHg 63%
21:00 +20°C° 0 mm 2 mps 752 mmHg 64%
22:00 +20°C° 0 mm 2 mps 752 mmHg 65%
23:00 +19°C° 0 mm 2 mps 752 mmHg 67%
Show more